Showing default

NAVSPASUR ROD 1, 1515

Orbit data source: Space-Track

NAVSPASUR ROD 1, 1515 is a payload satellite owned by NRL (US) in LEO that was launched on Fri, 13 Aug 1965 UTC via a THOR ABLESTAR launch vehicle from the Air Force Western Test Range (AFWTR). Payload-class satellites include a variety of spacecraft equipped with specific instruments for various scientific and technological missions. These include communications satellites like Starlink; space stations such as the ISS; scientific satellites like the Hubble; Earth observation satellites from companies like Planet Labs, Umbra, and HawkEye 360; GPS; miniature CubeSats for education and research; and military/defense satellites.

Loading next visibility...
Identifier
1515, 1965-065G
Orbit
LEO
Country
Flag of USUS
Related business
Manufacturer
NRL
Mission
Spacecraft
Bus & Motor
LONG ROD, Unknown motor
Mass
3 kg wet, 3 kg dry
Launch date (UTC)
1965-08-13 (61 years ago)
Launch vehicle
THOR ABLESTAR
Launch site
Air Force Western Test Range (AFWTR)
Object type
Payload
Rocket body
Debris
Shape & HBR
SPHERE, 1.1 m
Radar Cross Section
Medium (>0.1 m² and <1 m²)

Expand to show TLE details & history
Last TLE update: 14 hours ago

TLE from 14 hours ago
0 NAVSPASUR ROD 1
1 01515U 65065G   26255.88111350  .00000478  00000-0  71499-3 0  9993
2 01515  90.0279 214.4709 0063683  60.7172 353.2788 13.51083984992162
Epoch: 2026-09-12T21:08Z
TLE epoch observation values (Epoch: 2026-09-12T21:08:48.206Z)
Latitude
54.00486°
Longitude
-94.65193°
Altitude
1,030.124 km
Speed
7.365 km/s
True Right ascension
14h 17m 43s
True Declination
53° 50' 50"
Sunlit
Object was in daylight at epoch
Visualization orbit readout
Latitude
Unknown
Longitude
Unknown
Altitude
Unknown
Speed
Unknown
Apparent Right ascension
Unknown
Apparent Declination
Unknown
Sunlit
N/A
Visualization observer readout
Local Sidereal Time
03:33:27
Azimuth
Unknown
Elevation
Unknown
Doppler factor
Unknown
Orbital elements
Apogee altitude
1,112.723 km
Perigee altitude
1,017.919 km
Semi-major axis
7,443.458 km
Eccentricity
0.00637
Inclination
90.0279°
RAAN
214.4709°
Arg. of periapsis
60.7172°
True anomaly
353.19271°
Mean anomaly
353.2788°
Eccentric anomaly
353.23582°
Mean motion
3.37972 °/min
Orbital period
106.52 mins
BSTAR
0.00071499
Loading maneuver chart data...
Computing Atmospheric mass density...
Loading historical data...
Loading historical data...
Loading historical data...
Loading historical data...
Loading historical data...
Loading historical data...
Loading historical data...

Documentation

Showing up to 5 results
|